[[{"header":{"parameterUnit":"m.s-1","parameterCategory":2,"la1":30.2991,"la2":30.254,"lo1":-89.0895,"lo2":-89.0444,"dy":0.0017,"dx":0.0017,"nx":28,"ny":28,"refTime":"2025-07-11T21:00:00:Z","depth":"0","parameterNumber":2,"parameterNumberName":"U-component_of_CURRENTS"},"data":[0,0,0,0,0,0,0,0,0,0,0,0,0,0,0,0,0,0,0,0,0,0,0,0,0,0,0,0,0,0,0,0,0,0,0,0,0,0,0,0,0,0,0,0,0,0,0,0,0,0,0,0,0,0,0,0,0,0,-0.3536,-0.3536,0,-0.3551,-0.3551,-0.3551,-0.3504,-0.3503,-0.3502,-0.35,-0.3458,-0.3458,-0.3458,0,0,0,0,0,0,0,0,0,0,0,0,0,-0.3496,-0.3496,-0.3536,-0.3536,-0.3536,-0.3551,-0.3551,-0.3551,-0.3505,-0.3503,-0.3501,-0.35,-0.3458,-0.3458,-0.3458,0,0,0,0,0,0,0,0,0,0,0,0,0,-0.3511,-0.3497,-0.3536,-0.3516,-0.3514,-0.3551,-0.3551,-0.3551,-0.3505,-0.3503,-0.3501,-0.3499,-0.3458,-0.3458,-0.3458,-0.35,0,0,-0.3459,-0.3459,0,0,0,0,0,0,0,0,-0.351,-0.3513,-0.3518,-0.3517,-0.3515,-0.3525,-0.3521,-0.3531,-0.3505,-0.3507,-0.35,-0.3498,-0.3477,-0.3476,-0.3482,-0.3498,-0.3496,-0.3459,-0.3459,-0.3459,-0.3459,0,0,0,0,0,0,0,-0.3509,-0.3512,-0.3541,-0.3519,-0.3517,-0.3516,-0.3515,-0.3523,-0.3502,-0.3507,-0.3504,-0.3508,-0.3475,-0.3482,-0.3481,-0.3495,-0.3459,-0.3459,-0.3459,-0.3459,-0.3536,-0.3538,0,0,0,0,0,0,-0.351,-0.3511,-0.354,-0.3541,-0.3509,-0.3518,-0.3518,-0.3523,-0.3503,-0.3498,-0.351,-0.3506,-0.3483,-0.3481,-0.3479,-0.352,-0.3459,-0.3459,-0.3459,-0.3534,-0.3537,-0.3539,0,0,0,0,0,0,-0.3509,-0.3513,-0.354,-0.3527,-0.353,-0.3521,-0.3527,-0.3524,-0.3521,-0.3505,-0.3499,-0.3508,-0.3481,-0.3479,-0.3494,-0.3518,-0.3459,-0.3459,-0.3532,-0.3535,-0.3538,-0.3606,0,0,0,0,0,0,-0.3508,-0.3513,-0.3514,-0.3527,-0.3531,-0.3569,-0.3529,-0.3526,-0.3528,-0.3522,-0.3503,-0.3497,-0.348,-0.3494,-0.3494,-0.3517,-0.346,-0.353,-0.3533,-0.3537,-0.3601,-0.361,-0.3619,0,0,0,0,0,-0.3507,-0.3519,-0.3514,-0.3517,-0.3534,-0.357,-0.3573,-0.3558,-0.353,-0.3544,-0.353,-0.3497,-0.3516,-0.3496,-0.3495,-0.3519,-0.3528,-0.3532,-0.3537,-0.3597,-0.3609,-0.3618,0,0,0,0,0,0,-0.3507,-0.3517,-0.351,-0.3525,-0.3549,-0.3562,-0.3567,-0.3563,-0.3564,-0.355,-0.3525,-0.3521,-0.3548,-0.3529,-0.3507,-0.3554,-0.3516,-0.3521,-0.3562,-0.3573,-0.3582,-0.36,-0.346,0,0,0,0,0,-0.3509,-0.3511,-0.3536,-0.3547,-0.3557,-0.3563,-0.3571,-0.3571,-0.3577,-0.3574,-0.3563,-0.3556,-0.3571,-0.3565,-0.3578,-0.36,-0.358,-0.3616,-0.3625,-0.3632,-0.3649,-0.3635,-0.3644,-0.3553,-0.3553,-0.3553,0,0,-0.3507,-0.3515,-0.3515,-0.3546,-0.3553,-0.359,-0.3562,-0.3584,-0.3613,-0.3571,-0.3594,-0.3593,-0.3589,-0.362,-0.3629,-0.36,-0.3649,-0.3638,-0.3644,-0.3657,-0.364,-0.3649,-0.3656,-0.3556,-0.3556,-0.3555,0,0,-0.3513,-0.3519,-0.3525,-0.3556,-0.3581,-0.3602,-0.3611,-0.3634,-0.3638,-0.3672,-0.3654,-0.3668,-0.3679,-0.3685,-0.3688,-0.3755,-0.3707,-0.3755,-0.38,-0.3786,-0.3793,-0.3799,-0.3787,-0.3791,-0.3745,-0.3746,-0.3746,0,-0.3511,-0.353,-0.3536,-0.3566,-0.3597,-0.361,-0.3649,-0.3672,-0.3697,-0.3716,-0.3686,-0.3725,-0.3714,-0.3759,-0.3783,-0.3774,-0.3757,-0.3755,-0.3796,-0.3801,-0.3806,-0.3792,-0.3796,-0.3749,-0.3749,-0.3748,-0.3748,0,-0.3522,-0.3554,-0.3567,-0.3608,-0.3647,-0.3686,-0.373,-0.3761,-0.3767,-0.3789,-0.3832,-0.3822,-0.384,-0.3842,-0.3833,-0.3873,-0.3849,-0.3816,-0.3764,-0.3819,-0.3802,-0.3804,-0.3755,-0.3753,-0.3752,-0.3751,0,0,-0.3474,-0.3558,-0.3562,-0.3605,-0.3678,-0.3716,-0.3778,-0.3846,-0.3881,-0.39,-0.3935,-0.397,-0.3957,-0.3962,-0.3945,-0.3935,-0.3952,-0.3894,-0.3891,-0.3874,-0.3924,-0.364,-0.3615,-0.3918,-0.3919,-0.392,-0.3899,0,-0.3481,-0.3555,-0.3595,-0.3682,-0.3731,-0.3789,-0.3849,-0.3913,-0.3948,-0.3987,-0.3991,-0.4017,-0.4003,-0.3998,-0.3999,-0.3964,-0.3962,-0.3962,-0.3881,-0.388,-0.3612,-0.3609,-0.3397,-0.3336,-0.3901,-0.3901,-0.3901,0,-0.3469,-0.3531,-0.3617,-0.3737,-0.3761,-0.3816,-0.392,-0.3975,-0.4045,-0.4064,-0.4096,-0.4093,-0.4111,-0.4065,-0.405,-0.4047,-0.4007,-0.3971,-0.3968,-0.368,-0.3598,-0.3373,-0.3319,-0.3273,-0.3904,-0.3904,-0.3904,0,-0.3432,-0.3544,-0.362,-0.3662,-0.3794,-0.3841,-0.3903,-0.3992,-0.4037,-0.41,-0.4117,-0.4149,-0.4131,-0.4109,-0.4041,-0.4049,-0.399,-0.398,-0.3701,-0.3682,-0.3473,-0.343,-0.3351,-0.3974,-0.3974,-0.3974,-0.3974,0,-0.3426,-0.3487,-0.3609,-0.3656,-0.3743,-0.383,-0.3908,-0.3977,-0.4048,-0.4096,-0.414,-0.4157,-0.4137,-0.4099,-0.4056,-0.3856,-0.3999,-0.3702,-0.3644,-0.3487,-0.3448,-0.3371,-0.3432,-0.3973,-0.3973,-0.3973,-0.3973,0,-0.338,-0.3458,-0.3558,-0.3695,-0.373,-0.379,-0.3899,-0.3942,-0.4024,-0.4075,-0.4088,-0.4149,-0.4064,-0.4011,-0.3945,-0.3816,-0.3591,-0.3601,-0.3405,-0.3318,-0.2924,-0.2997,-0.2885,-0.2813,-0.3265,-0.3257,-0.3251,0,-0.3365,-0.3414,-0.3563,-0.3603,-0.3663,-0.3751,-0.3794,-0.3907,-0.395,-0.4064,-0.4071,-0.403,-0.3954,-0.3725,-0.3483,-0.3276,-0.3346,-0.2966,-0.2911,-0.2846,-0.2891,-0.298,-0.294,-0.2702,-0.2692,-0.2684,-0.2677,0,-0.3343,-0.34,-0.3477,-0.3547,-0.3605,-0.3669,-0.3741,-0.3777,-0.3895,-0.3922,-0.3908,-0.3853,-0.3599,-0.3221,-0.2924,-0.2815,-0.2838,-0.2775,-0.2785,-0.2481,-0.2507,-0.2425,-0.2806,-0.2602,-0.261,-0.2615,-0.2619,-0.2622,-0.3309,-0.3343,-0.3418,-0.3471,-0.3526,-0.3542,-0.3501,-0.3571,-0.3586,-0.347,-0.3584,-0.3218,-0.2891,-0.2388,-0.2361,-0.2031,-0.2253,-0.193,-0.2044,-0.2156,-0.2003,-0.2176,-0.1835,-0.1837,-0.184,-0.1842,-0.1844,0,-0.3225,-0.3261,-0.332,-0.3355,-0.3324,-0.3394,-0.3407,-0.3279,-0.3182,-0.2977,-0.2801,-0.2105,-0.1837,-0.1643,-0.1384,-0.1334,-0.1424,-0.136,-0.1523,-0.1532,-0.1724,-0.1605,-0.1101,-0.1101,-0.1101,-0.1101,-0.1101,-0.1101,-0.3178,-0.3183,-0.3204,-0.3118,-0.3113,-0.2932,-0.2867,-0.2693,-0.2449,-0.1882,-0.1318,-0.0999,-0.0878,-0.102,-0.1045,-0.1053,-0.1152,-0.1084,-0.123,-0.1443,-0.1509,-0.1573,-0.1473,-0.0949,-0.0949,-0.095,-0.095,-0.0951]},{"header":{"parameterUnit":"m.s-1","parameterCategory":2,"la1":30.2991,"la2":30.254,"lo1":-89.0895,"lo2":-89.0444,"dy":0.0017,"dx":0.0017,"nx":28,"ny":28,"refTime":"2025-07-11T21:00:00:Z","depth":"0","parameterNumber":3,"parameterNumberName":"V-component_of_CURRENTS"},"data":[0,0,0,0,0,0,0,0,0,0,0,0,0,0,0,0,0,0,0,0,0,0,0,0,0,0,0,0,0,0,0,0,0,0,0,0,0,0,0,0,0,0,0,0,0,0,0,0,0,0,0,0,0,0,0,0,0,0,-0.1107,-0.1107,0,-0.102,-0.1019,-0.1018,-0.0913,-0.0911,-0.091,-0.0909,-0.0717,-0.0714,-0.071,0,0,0,0,0,0,0,0,0,0,0,0,0,-0.1047,-0.105,-0.1107,-0.1107,-0.1106,-0.1021,-0.1019,-0.1018,-0.0913,-0.0911,-0.091,-0.0908,-0.0719,-0.0714,-0.0709,0,0,0,0,0,0,0,0,0,0,0,0,0,-0.1025,-0.105,-0.1108,-0.1046,-0.104,-0.1021,-0.1019,-0.1017,-0.0913,-0.0911,-0.0909,-0.0907,-0.072,-0.0715,-0.0709,-0.0713,0,0,-0.0691,-0.0689,0,0,0,0,0,0,0,0,-0.1027,-0.1027,-0.1056,-0.105,-0.1043,-0.0978,-0.0928,-0.0911,-0.0914,-0.0958,-0.0909,-0.0906,-0.0799,-0.0786,-0.0771,-0.0704,-0.0696,-0.0691,-0.0687,-0.0685,-0.0683,0,0,0,0,0,0,0,-0.1029,-0.103,-0.1069,-0.1055,-0.1048,-0.0976,-0.0972,-0.0924,-0.0886,-0.0954,-0.0947,-0.0943,-0.0794,-0.0777,-0.0766,-0.0693,-0.0691,-0.0686,-0.0682,-0.068,-0.0599,-0.06,0,0,0,0,0,0,-0.1057,-0.1033,-0.1072,-0.1067,-0.1034,-0.098,-0.0975,-0.0998,-0.0888,-0.0872,-0.0945,-0.0939,-0.0788,-0.0772,-0.0758,-0.0763,-0.0685,-0.0679,-0.0676,-0.0598,-0.0599,-0.0601,0,0,0,0,0,0,-0.1056,-0.1062,-0.1076,-0.1048,-0.1045,-0.0985,-0.1011,-0.0998,-0.0977,-0.0884,-0.0863,-0.0938,-0.0786,-0.0766,-0.0724,-0.0754,-0.0677,-0.0671,-0.0596,-0.0598,-0.06,-0.0768,0,0,0,0,0,0,-0.1055,-0.1063,-0.1085,-0.1052,-0.1048,-0.1085,-0.1013,-0.0998,-0.098,-0.0971,-0.0871,-0.0851,-0.0783,-0.0733,-0.0718,-0.0745,-0.0667,-0.0595,-0.0597,-0.06,-0.0761,-0.0775,-0.0788,0,0,0,0,0,-0.1054,-0.1108,-0.1087,-0.1091,-0.1083,-0.1087,-0.1079,-0.1024,-0.0982,-0.0993,-0.0919,-0.0854,-0.0737,-0.073,-0.0712,-0.0738,-0.0593,-0.0596,-0.0599,-0.0754,-0.0772,-0.0788,0,0,0,0,0,0,-0.1095,-0.1102,-0.1078,-0.1131,-0.1115,-0.107,-0.1077,-0.1037,-0.0989,-0.0974,-0.0872,-0.0849,-0.0825,-0.0759,-0.0753,-0.0721,-0.0655,-0.0654,-0.0779,-0.0795,-0.0808,-0.0852,-0.0662,0,0,0,0,0,-0.1118,-0.1156,-0.1139,-0.1178,-0.1178,-0.1127,-0.1118,-0.1086,-0.1042,-0.1018,-0.0949,-0.0876,-0.0826,-0.0793,-0.0741,-0.0724,-0.0672,-0.0727,-0.0741,-0.0753,-0.0776,-0.0751,-0.0766,-0.0611,-0.0611,-0.0611,0,0,-0.1142,-0.115,-0.1169,-0.1187,-0.1167,-0.1199,-0.1116,-0.1123,-0.1136,-0.1006,-0.0998,-0.0925,-0.0834,-0.0817,-0.08,-0.0763,-0.0763,-0.0757,-0.0768,-0.0785,-0.0756,-0.0771,-0.0785,-0.0613,-0.0612,-0.0612,0,0,-0.1225,-0.1222,-0.1284,-0.1284,-0.1277,-0.1252,-0.1262,-0.1228,-0.1199,-0.119,-0.1096,-0.1048,-0.0972,-0.0916,-0.0876,-0.0934,-0.0841,-0.0909,-0.1008,-0.0984,-0.0997,-0.1008,-0.0939,-0.0942,-0.091,-0.0911,-0.0911,0,-0.1249,-0.133,-0.1299,-0.1354,-0.1364,-0.1289,-0.1349,-0.132,-0.1272,-0.1252,-0.1211,-0.1102,-0.1027,-0.0995,-0.1017,-0.0968,-0.0924,-0.0956,-0.1005,-0.1015,-0.1023,-0.0949,-0.0951,-0.0919,-0.0918,-0.0917,-0.0917,0,-0.1383,-0.1432,-0.1468,-0.1516,-0.1522,-0.1559,-0.1524,-0.1509,-0.146,-0.1422,-0.138,-0.1281,-0.1208,-0.1182,-0.112,-0.1134,-0.1071,-0.1033,-0.0972,-0.105,-0.0965,-0.0964,-0.0931,-0.0928,-0.0926,-0.0924,0,0,-0.1469,-0.1549,-0.1559,-0.1595,-0.1608,-0.1626,-0.1648,-0.1642,-0.1635,-0.1582,-0.1572,-0.1498,-0.1421,-0.1372,-0.1275,-0.126,-0.1272,-0.1188,-0.1182,-0.1133,-0.1192,-0.0942,-0.0915,-0.1249,-0.1251,-0.1252,-0.1101,0,-0.1576,-0.1713,-0.172,-0.182,-0.1878,-0.1818,-0.1836,-0.1809,-0.1759,-0.1726,-0.1623,-0.1577,-0.1497,-0.1451,-0.1431,-0.1307,-0.1281,-0.1314,-0.1111,-0.1105,-0.0886,-0.091,-0.0747,-0.0582,-0.11,-0.1099,-0.1099,0,-0.171,-0.1776,-0.1911,-0.1954,-0.1971,-0.2011,-0.1998,-0.2003,-0.1931,-0.1884,-0.1822,-0.1725,-0.1663,-0.1592,-0.1454,-0.1479,-0.1365,-0.1276,-0.1266,-0.0979,-0.0853,-0.059,-0.056,-0.0378,-0.1096,-0.1096,-0.1097,0,-0.1789,-0.1902,-0.2011,-0.2034,-0.2079,-0.21,-0.2099,-0.2053,-0.2041,-0.1975,-0.1949,-0.1854,-0.1776,-0.1672,-0.1445,-0.1471,-0.1274,-0.1274,-0.0938,-0.0917,-0.0708,-0.0665,-0.0491,-0.1204,-0.1204,-0.1205,-0.1205,0,-0.1906,-0.1982,-0.2055,-0.2108,-0.219,-0.2182,-0.2225,-0.2194,-0.215,-0.2132,-0.203,-0.1971,-0.1803,-0.1639,-0.1481,-0.1159,-0.1285,-0.0953,-0.0868,-0.0753,-0.0718,-0.0491,-0.0471,-0.1199,-0.12,-0.1201,-0.1202,0,-0.1985,-0.2043,-0.2155,-0.222,-0.2239,-0.229,-0.2303,-0.2313,-0.2263,-0.2235,-0.2216,-0.2062,-0.182,-0.1583,-0.1349,-0.115,-0.0739,-0.0761,-0.0598,-0.0494,-0.0015,-0.0011,0.0242,0.0377,-0.0403,-0.0396,-0.039,0,-0.2044,-0.2119,-0.2228,-0.2282,-0.2319,-0.2376,-0.2399,-0.2372,-0.2371,-0.2266,-0.225,-0.2014,-0.1763,-0.1272,-0.0901,-0.0508,-0.0438,-0.0136,-0.0159,0.0052,0.0115,0.0093,0.0181,0.0048,0.0057,0.0065,0.007,0,-0.2125,-0.2167,-0.2242,-0.2354,-0.2417,-0.2471,-0.2496,-0.2508,-0.2448,-0.2337,-0.215,-0.1935,-0.1433,-0.0862,-0.0317,-0.0106,0.0048,0.0033,0.0177,0.0433,0.0488,0.0648,-0.0074,0.0136,0.013,0.0125,0.0121,0.0119,-0.2149,-0.2218,-0.2307,-0.2403,-0.2475,-0.2516,-0.2479,-0.2455,-0.235,-0.2024,-0.1947,-0.1354,-0.0766,0.0054,0.0225,0.0775,0.0587,0.0931,0.0903,0.0852,0.1027,0.05,0.086,0.0858,0.0856,0.0854,0.0852,0,-0.2145,-0.2226,-0.2336,-0.2421,-0.2456,-0.2496,-0.2487,-0.2328,-0.2101,-0.1667,-0.129,-0.0289,0.0343,0.0814,0.144,0.1637,0.158,0.1708,0.1649,0.1685,0.1179,0.125,0.1803,0.1803,0.1803,0.1802,0.1802,0.1802,-0.214,-0.2234,-0.2295,-0.2354,-0.2388,-0.2284,-0.2222,-0.1961,-0.159,-0.0721,0.0055,0.0591,0.12,0.1781,0.2218,0.2241,0.2325,0.2334,0.2338,0.1927,0.1848,0.1773,0.1848,0.2517,0.2518,0.2882,0.2885,0.2888]}],[{"header":{"parameterUnit":"m.s-1","parameterCategory":2,"la1":30.2991,"la2":30.254,"lo1":-89.0895,"lo2":-89.0444,"dy":0.0017,"dx":0.0017,"nx":28,"ny":28,"refTime":"2025-07-11T21:00:00:Z","depth":"2","parameterNumber":2,"parameterNumberName":"U-component_of_CURRENTS"},"data":[0,0,0,0,0,0,0,0,0,0,0,0,0,0,0,0,0,0,0,0,0,0,0,0,0,0,0,0,0,0,0,0,0,0,0,0,0,0,0,0,0,0,0,0,0,0,0,0,0,0,0,0,0,0,0,0,0,0,-0.2035,-0.2035,0,-0.2045,-0.2046,-0.2046,-0.2162,-0.2164,-0.2166,-0.2169,-0.2279,-0.228,-0.228,0,0,0,0,0,0,0,0,0,0,0,0,0,-0.2066,-0.2065,-0.2035,-0.2035,-0.2035,-0.2045,-0.2046,-0.2046,-0.2161,-0.2164,-0.2167,-0.217,-0.2279,-0.228,-0.228,0,0,0,0,0,0,0,0,0,0,0,0,0,-0.2067,-0.2065,-0.2035,-0.2089,-0.2094,-0.2045,-0.2046,-0.2047,-0.2161,-0.2164,-0.2168,-0.2171,-0.2278,-0.2279,-0.2281,-0.2214,0,0,-0.2284,-0.2284,0,0,0,0,0,0,0,0,-0.2067,-0.2066,-0.2082,-0.2085,-0.209,-0.2101,-0.2097,-0.2106,-0.216,-0.2141,-0.2169,-0.2173,-0.2223,-0.2228,-0.2228,-0.222,-0.2224,-0.2284,-0.2284,-0.2285,-0.2285,0,0,0,0,0,0,0,-0.2067,-0.2066,-0.2045,-0.2081,-0.2086,-0.2095,-0.2101,-0.2099,-0.2167,-0.2143,-0.215,-0.2141,-0.2227,-0.2227,-0.2232,-0.2226,-0.2284,-0.2285,-0.2285,-0.2286,-0.2248,-0.2247,0,0,0,0,0,0,-0.2053,-0.2066,-0.2044,-0.2044,-0.2081,-0.2092,-0.2098,-0.2098,-0.2165,-0.2177,-0.2138,-0.2146,-0.2224,-0.2231,-0.2237,-0.2287,-0.2285,-0.2286,-0.2286,-0.225,-0.2248,-0.2246,0,0,0,0,0,0,-0.2054,-0.2051,-0.2044,-0.2051,-0.205,-0.2087,-0.2087,-0.2097,-0.2126,-0.216,-0.2175,-0.2161,-0.2227,-0.2235,-0.224,-0.2288,-0.2286,-0.2287,-0.2252,-0.2249,-0.2247,-0.2309,0,0,0,0,0,0,-0.2055,-0.2051,-0.2047,-0.205,-0.2049,-0.2049,-0.2083,-0.2094,-0.211,-0.2123,-0.2182,-0.2195,-0.223,-0.2238,-0.2241,-0.229,-0.2288,-0.2254,-0.2251,-0.2248,-0.2309,-0.2309,-0.2309,0,0,0,0,0,-0.2056,-0.2044,-0.2047,-0.2044,-0.2042,-0.2049,-0.2051,-0.2092,-0.2108,-0.213,-0.2144,-0.2195,-0.2222,-0.2236,-0.2241,-0.2291,-0.2255,-0.2252,-0.2248,-0.2309,-0.2309,-0.2309,0,0,0,0,0,0,-0.2058,-0.2053,-0.2058,-0.2046,-0.2058,-0.2068,-0.2073,-0.2089,-0.2113,-0.2124,-0.2162,-0.2174,-0.2204,-0.2204,-0.2218,-0.2261,-0.2251,-0.2248,-0.2296,-0.2296,-0.2296,-0.2339,-0.2289,0,0,0,0,0,-0.2047,-0.2039,-0.2043,-0.2033,-0.2037,-0.205,-0.2053,-0.2081,-0.2094,-0.2111,-0.2141,-0.2159,-0.218,-0.2205,-0.2215,-0.2223,-0.2225,-0.2254,-0.2254,-0.2255,-0.2285,-0.2314,-0.2322,-0.2234,-0.2234,-0.2234,0,0,-0.2038,-0.2035,-0.2028,-0.2032,-0.2038,-0.2063,-0.2066,-0.2077,-0.2112,-0.2112,-0.2158,-0.2158,-0.2174,-0.2204,-0.2218,-0.2222,-0.2264,-0.225,-0.2252,-0.2283,-0.2312,-0.2322,-0.233,-0.2232,-0.2232,-0.2233,0,0,-0.2028,-0.202,-0.2021,-0.2037,-0.2047,-0.2062,-0.2069,-0.2084,-0.2116,-0.2126,-0.2145,-0.2164,-0.2179,-0.2221,-0.2239,-0.2228,-0.2256,-0.2227,-0.2285,-0.2312,-0.2322,-0.2331,-0.229,-0.2295,-0.2238,-0.2238,-0.2238,0,-0.2025,-0.2029,-0.2023,-0.2043,-0.2063,-0.2069,-0.21,-0.212,-0.2139,-0.2165,-0.2154,-0.2189,-0.2201,-0.2266,-0.227,-0.2243,-0.2233,-0.2298,-0.232,-0.2329,-0.2337,-0.2294,-0.2299,-0.2241,-0.224,-0.224,-0.224,0,-0.2026,-0.2043,-0.2046,-0.2082,-0.2103,-0.2123,-0.2155,-0.2181,-0.2196,-0.2223,-0.2268,-0.226,-0.2299,-0.2295,-0.2288,-0.2353,-0.2313,-0.2315,-0.234,-0.2351,-0.2302,-0.2306,-0.2244,-0.2243,-0.2243,-0.2242,0,0,-0.1992,-0.2042,-0.2045,-0.2083,-0.213,-0.2151,-0.2206,-0.2266,-0.2313,-0.2326,-0.2384,-0.2408,-0.2409,-0.2424,-0.2415,-0.2436,-0.2455,-0.2406,-0.2406,-0.2399,-0.247,-0.233,-0.232,-0.2473,-0.2475,-0.2477,-0.2396,0,-0.2005,-0.2054,-0.2078,-0.2144,-0.2181,-0.2224,-0.2279,-0.2335,-0.237,-0.242,-0.244,-0.2475,-0.2459,-0.2466,-0.2496,-0.2472,-0.2477,-0.2474,-0.2432,-0.243,-0.2334,-0.2325,-0.214,-0.2045,-0.2399,-0.24,-0.24,0,-0.2001,-0.2043,-0.2104,-0.2197,-0.2217,-0.2259,-0.2355,-0.2409,-0.2489,-0.2513,-0.2568,-0.257,-0.2616,-0.2574,-0.259,-0.2591,-0.2543,-0.2509,-0.2506,-0.2371,-0.2299,-0.2097,-0.2039,-0.2407,-0.2406,-0.2406,-0.2406,0,-0.1981,-0.2062,-0.2114,-0.2145,-0.2246,-0.2289,-0.2348,-0.2438,-0.2473,-0.2572,-0.2569,-0.2659,-0.2647,-0.2663,-0.2582,-0.2604,-0.2548,-0.257,-0.2392,-0.2378,-0.2212,-0.2181,-0.2575,-0.2575,-0.2575,-0.2575,-0.2575,0,-0.1988,-0.2031,-0.2109,-0.2144,-0.2204,-0.2292,-0.2363,-0.243,-0.2507,-0.2527,-0.2609,-0.2595,-0.2668,-0.2629,-0.26,-0.2481,-0.2565,-0.2403,-0.2365,-0.2215,-0.2186,-0.2508,-0.2501,-0.2572,-0.2573,-0.2573,-0.2574,0,-0.1951,-0.2009,-0.2065,-0.2166,-0.2192,-0.2236,-0.2325,-0.2363,-0.2452,-0.2467,-0.2483,-0.2546,-0.2506,-0.25,-0.2485,-0.2449,-0.2384,-0.2307,-0.2086,-0.2024,-0.2196,-0.2193,-0.2158,-0.2153,-0.2148,-0.2144,-0.2141,0,-0.1935,-0.1959,-0.2038,-0.2051,-0.2091,-0.2163,-0.219,-0.2312,-0.234,-0.2398,-0.2376,-0.2364,-0.2301,-0.2216,-0.2165,-0.2078,-0.2189,-0.1873,-0.1906,-0.2195,-0.2162,-0.2165,-0.2168,-0.168,-0.1674,-0.1668,-0.1664,0,-0.1886,-0.1903,-0.1937,-0.1957,-0.1982,-0.2018,-0.2075,-0.2082,-0.2195,-0.2181,-0.2159,-0.2118,-0.2033,-0.1883,-0.1774,-0.1717,-0.1896,-0.1758,-0.2129,-0.1814,-0.1739,-0.1708,-0.1728,-0.1616,-0.162,-0.1624,-0.1627,-0.1629,-0.181,-0.1802,-0.1822,-0.1832,-0.1855,-0.1846,-0.1815,-0.1854,-0.1841,-0.1796,-0.1912,-0.1787,-0.1781,-0.1523,-0.1424,-0.1365,-0.1516,-0.1492,-0.1512,-0.1537,-0.1497,-0.1418,-0.1223,-0.1225,-0.1227,-0.1229,-0.1231,0,-0.17,-0.1694,-0.1692,-0.1684,-0.1643,-0.1706,-0.1698,-0.1615,-0.151,-0.1542,-0.1513,-0.1334,-0.121,-0.1194,-0.1011,-0.0988,-0.1021,-0.0968,-0.102,-0.1066,-0.1107,-0.105,-0.0655,-0.0654,-0.0652,-0.0651,0,0,-0.1641,-0.1587,-0.1582,-0.1467,-0.1455,-0.1328,-0.1283,-0.1163,-0.1138,-0.1017,-0.0984,-0.1144,-0.1147,-0.0916,-0.0853,-0.0721,-0.0898,-0.0681,-0.1135,-0.124,-0.1281,-0.1387,-0.1346,0,0,0,0,0]},{"header":{"parameterUnit":"m.s-1","parameterCategory":2,"la1":30.2991,"la2":30.254,"lo1":-89.0895,"lo2":-89.0444,"dy":0.0017,"dx":0.0017,"nx":28,"ny":28,"refTime":"2025-07-11T21:00:00:Z","depth":"2","parameterNumber":3,"parameterNumberName":"V-component_of_CURRENTS"},"data":[0,0,0,0,0,0,0,0,0,0,0,0,0,0,0,0,0,0,0,0,0,0,0,0,0,0,0,0,0,0,0,0,0,0,0,0,0,0,0,0,0,0,0,0,0,0,0,0,0,0,0,0,0,0,0,0,0,0,-0.0217,-0.0216,0,-0.0123,-0.0122,-0.0121,-0.0036,-0.0035,-0.0034,-0.0034,0.0112,0.0115,0.0118,0,0,0,0,0,0,0,0,0,0,0,0,0,-0.0296,-0.0295,-0.0217,-0.0216,-0.0215,-0.0124,-0.0122,-0.0121,-0.0036,-0.0035,-0.0034,-0.0033,0.0111,0.0115,0.0118,0,0,0,0,0,0,0,0,0,0,0,0,0,-0.0236,-0.0294,-0.0217,-0.0163,-0.0157,-0.0124,-0.0122,-0.012,-0.0037,-0.0035,-0.0034,-0.0033,0.011,0.0114,0.0119,0.0122,0,0,0.0133,0.0135,0,0,0,0,0,0,0,0,-0.024,-0.0233,-0.0172,-0.0167,-0.016,-0.0092,-0.0096,-0.0037,-0.0037,-0.0081,-0.0034,-0.0032,0.0047,0.0057,0.0073,0.0129,0.0135,0.0133,0.0136,0.0138,0.014,0,0,0,0,0,0,0,-0.0244,-0.0237,-0.0178,-0.0171,-0.0164,-0.0135,-0.0125,-0.0085,-0.0023,-0.0077,-0.0071,-0.0064,0.0051,0.0068,0.0077,0.0137,0.0133,0.0137,0.014,0.0142,0.0223,0.0223,0,0,0,0,0,0,-0.0262,-0.0241,-0.0181,-0.0175,-0.02,-0.0135,-0.0123,-0.0114,-0.0024,-0.001,-0.0065,-0.006,0.006,0.0072,0.0083,0.0121,0.0138,0.0143,0.0145,0.0224,0.0223,0.0222,0,0,0,0,0,0,-0.0264,-0.0257,-0.0185,-0.0207,-0.0196,-0.0135,-0.0124,-0.0112,-0.0088,-0.0016,-0.0001,-0.0052,0.0061,0.0076,0.0111,0.0126,0.0145,0.0149,0.0225,0.0224,0.0223,0.0179,0,0,0,0,0,0,-0.0267,-0.0259,-0.0259,-0.0209,-0.0196,-0.0162,-0.0125,-0.0112,-0.0087,-0.0079,-0.0,0.0014,0.0063,0.0103,0.0115,0.0133,0.0152,0.0225,0.0224,0.0223,0.0181,0.0176,0.0173,0,0,0,0,0,-0.027,-0.0267,-0.0259,-0.0252,-0.0197,-0.0162,-0.0152,-0.0103,-0.0088,-0.0077,-0.0035,0.0012,0.0105,0.0106,0.012,0.014,0.0226,0.0225,0.0223,0.0183,0.0177,0.0173,0,0,0,0,0,0,-0.0294,-0.0257,-0.0247,-0.0232,-0.0203,-0.0148,-0.0135,-0.011,-0.007,-0.0064,0.0001,0.0018,0.0058,0.0092,0.0091,0.0156,0.0175,0.0176,0.0139,0.0135,0.0131,0.0116,0.0156,0,0,0,0,0,-0.0306,-0.0297,-0.0258,-0.0248,-0.0237,-0.0192,-0.0173,-0.0144,-0.0103,-0.0083,-0.0032,0.0017,0.0061,0.009,0.0134,0.0163,0.0218,0.0184,0.018,0.0176,0.0172,0.0262,0.0266,0.0218,0.0218,0.0218,0,0,-0.0313,-0.0293,-0.0287,-0.0254,-0.0227,-0.0217,-0.0176,-0.0151,-0.0137,-0.0075,-0.0041,0.0005,0.0063,0.0102,0.0124,0.0136,0.0218,0.0175,0.0171,0.0169,0.0261,0.0266,0.0271,0.0217,0.0217,0.0217,0,0,-0.0327,-0.0307,-0.0308,-0.0292,-0.0262,-0.0234,-0.0232,-0.0184,-0.0154,-0.0126,-0.0076,-0.003,0.0033,0.0084,0.0115,0.0109,0.0191,0.0125,0.01,0.0187,0.0193,0.0198,0.0275,0.0288,0.0125,0.0125,0.0125,0,-0.034,-0.0341,-0.0303,-0.0305,-0.0302,-0.0248,-0.0257,-0.0218,-0.0164,-0.0143,-0.0121,-0.0024,0.0028,0.0083,0.0081,0.0104,0.0161,0.0118,0.0184,0.0191,0.0197,0.0275,0.0289,0.0123,0.0123,0.0123,0.0124,0,-0.0357,-0.0365,-0.0365,-0.0355,-0.0341,-0.0339,-0.0293,-0.0268,-0.0233,-0.0189,-0.0129,-0.0059,0.0001,0.0027,0.0054,0.0119,0.0148,0.017,0.0201,0.02,0.0281,0.0297,0.012,0.0121,0.0121,0.0122,0,0,-0.0373,-0.038,-0.0382,-0.0407,-0.0376,-0.0372,-0.0346,-0.031,-0.0292,-0.022,-0.0178,-0.0103,-0.0055,-0.0019,0.0036,0.0108,0.0202,0.015,0.0155,0.0232,0.0396,0.0343,0.0356,0.0243,0.0246,0.0247,0.0436,0,-0.0406,-0.0449,-0.0428,-0.0466,-0.0492,-0.0446,-0.0429,-0.0385,-0.0326,-0.0265,-0.0168,-0.0105,-0.0072,-0.0036,0.004,0.0175,0.0242,0.0149,0.038,0.0387,0.0346,0.0372,0.035,0.0509,0.0452,0.0455,0.0457,0,-0.0433,-0.0468,-0.0522,-0.0554,-0.0556,-0.056,-0.0537,-0.0512,-0.0405,-0.0352,-0.0262,-0.0169,-0.0045,-0.0021,0.0204,0.0147,0.0253,0.035,0.0361,0.0336,0.0363,0.0501,0.0541,0.0484,0.0482,0.048,0.0478,0,-0.0496,-0.0533,-0.0591,-0.0602,-0.0615,-0.0623,-0.0616,-0.0543,-0.0517,-0.0394,-0.0343,-0.0184,-0.0081,0.0076,0.0251,0.0253,0.0492,0.053,0.0577,0.0575,0.0612,0.0608,0.0666,0.0666,0.0665,0.0665,0.0664,0,-0.0555,-0.06,-0.063,-0.0672,-0.0727,-0.07,-0.0718,-0.0677,-0.0592,-0.0542,-0.0396,-0.0301,-0.0049,0.0114,0.0262,0.0458,0.0506,0.0578,0.0622,0.0592,0.0585,0.06,0.059,0.0672,0.067,0.0669,0.0667,0,-0.0621,-0.0638,-0.0715,-0.0755,-0.0766,-0.0807,-0.0803,-0.08,-0.071,-0.063,-0.0584,-0.0346,-0.0114,0.0086,0.0373,0.0474,0.0659,0.0696,0.0628,0.0658,0.0694,0.0679,0.0832,0.0832,0.0832,0.0832,0.0832,0,-0.0663,-0.0713,-0.0789,-0.0833,-0.0858,-0.0902,-0.0922,-0.0868,-0.0842,-0.0654,-0.0605,-0.0361,-0.0169,0.02,0.0423,0.0665,0.0658,0.0752,0.0739,0.0685,0.0713,0.0698,0.0684,0.0793,0.0793,0.0792,0.0792,0,-0.0751,-0.0773,-0.0835,-0.0928,-0.0976,-0.1022,-0.1033,-0.103,-0.0926,-0.0828,-0.0617,-0.0437,-0.0069,0.0237,0.049,0.0621,0.0716,0.0749,0.0759,0.0712,0.0652,0.0677,0.0665,0.0789,0.0789,0.0789,0.079,0.079,-0.0803,-0.0864,-0.0937,-0.1017,-0.1072,-0.1112,-0.1136,-0.1108,-0.105,-0.087,-0.066,-0.0359,-0.0072,0.0339,0.0522,0.0699,0.0724,0.0785,0.0787,0.0788,0.0708,0.0646,0.0768,0.0768,0.0769,0.0769,0.0769,0,-0.087,-0.0929,-0.1016,-0.1106,-0.1167,-0.1172,-0.1182,-0.1159,-0.1087,-0.0866,-0.0645,-0.0301,0.0025,0.031,0.0605,0.076,0.0766,0.0766,0.0768,0.077,0.0772,0.069,0.0748,0.0748,0.0748,0.0748,0,0,-0.0907,-0.1001,-0.1045,-0.1159,-0.121,-0.1251,-0.1249,-0.1186,-0.1029,-0.0823,-0.0581,-0.0293,0.0085,0.0263,0.0468,0.0638,0.0653,0.0633,0.0637,0.0617,0.0618,0.0773,0.0647,0,0,0,0,0]}],[{"header":{"parameterUnit":"m.s-1","parameterCategory":2,"la1":30.2991,"la2":30.254,"lo1":-89.0895,"lo2":-89.0444,"dy":0.0017,"dx":0.0017,"nx":28,"ny":28,"refTime":"2025-07-11T21:00:00:Z","depth":"4","parameterNumber":2,"parameterNumberName":"U-component_of_CURRENTS"},"data":[0,0,0,0,0,0,0,0,0,0,0,0,0,0,0,0,0,0,0,0,0,0,0,0,0,0,0,0,0,0,0,0,0,0,0,0,0,0,0,0,0,0,0,0,0,0,0,0,0,0,0,0,0,0,0,0,0,0,-0.1493,-0.1493,0,-0.1526,-0.1526,-0.1527,-0.1572,-0.1573,-0.1574,-0.1575,-0.1616,-0.1617,-0.1617,0,0,0,0,0,0,0,0,0,0,0,0,0,-0.1454,-0.1454,-0.1493,-0.1493,-0.1494,-0.1526,-0.1526,-0.1527,-0.1572,-0.1573,-0.1574,-0.1575,-0.1616,-0.1617,-0.1617,0,0,0,0,0,0,0,0,0,0,0,0,0,-0.1477,-0.1455,-0.1493,-0.152,-0.1523,-0.1526,-0.1526,-0.1527,-0.1572,-0.1573,-0.1575,-0.1576,-0.1616,-0.1617,-0.1617,-0.1597,0,0,-0.1619,-0.1619,0,0,0,0,0,0,0,0,-0.1476,-0.1478,-0.1516,-0.1518,-0.1522,-0.1546,-0.1528,-0.1551,-0.1572,-0.1553,-0.1575,-0.1576,-0.1593,-0.1596,-0.1599,-0.1599,-0.1601,-0.1619,-0.1619,-0.162,-0.162,0,0,0,0,0,0,0,-0.1474,-0.1477,-0.1506,-0.1516,-0.152,-0.1526,-0.1531,-0.1532,-0.1566,-0.1555,-0.1558,-0.1562,-0.1595,-0.1598,-0.16,-0.1601,-0.1619,-0.1619,-0.162,-0.162,-0.1695,-0.1696,0,0,0,0,0,0,-0.147,-0.1476,-0.1505,-0.1507,-0.1501,-0.1526,-0.1531,-0.1537,-0.1566,-0.1572,-0.1561,-0.1564,-0.1597,-0.1599,-0.1602,-0.1674,-0.162,-0.162,-0.162,-0.1693,-0.1695,-0.1697,0,0,0,0,0,0,-0.1469,-0.1472,-0.1503,-0.1492,-0.1496,-0.1525,-0.1532,-0.1537,-0.1571,-0.1571,-0.1577,-0.1593,-0.1598,-0.1601,-0.1637,-0.1673,-0.162,-0.1621,-0.1691,-0.1694,-0.1696,-0.1758,0,0,0,0,0,0,-0.1468,-0.1472,-0.1487,-0.1492,-0.1497,-0.1532,-0.1531,-0.1537,-0.157,-0.1575,-0.1599,-0.1602,-0.1599,-0.1636,-0.1637,-0.1672,-0.1621,-0.1689,-0.1692,-0.1695,-0.1754,-0.1762,-0.177,0,0,0,0,0,-0.1466,-0.1481,-0.1488,-0.1492,-0.1514,-0.1533,-0.1537,-0.1561,-0.157,-0.1594,-0.1612,-0.1603,-0.1657,-0.1638,-0.1639,-0.1675,-0.1687,-0.1691,-0.1695,-0.175,-0.1761,-0.1769,0,0,0,0,0,0,-0.1474,-0.1487,-0.1495,-0.1514,-0.1535,-0.1542,-0.1564,-0.1576,-0.1607,-0.1618,-0.1618,-0.1623,-0.1668,-0.1662,-0.1641,-0.1707,-0.1673,-0.1677,-0.1715,-0.1725,-0.1732,-0.1721,-0.1622,0,0,0,0,0,-0.1481,-0.1498,-0.151,-0.153,-0.1541,-0.1557,-0.1572,-0.1587,-0.1607,-0.1623,-0.164,-0.1659,-0.1677,-0.1695,-0.1707,-0.1738,-0.1712,-0.1765,-0.1773,-0.1779,-0.1772,-0.1757,-0.1762,-0.1709,-0.1709,-0.1709,0,0,-0.1488,-0.1499,-0.151,-0.1534,-0.155,-0.1577,-0.1571,-0.1602,-0.1634,-0.162,-0.1678,-0.1685,-0.1692,-0.1732,-0.1752,-0.1737,-0.1785,-0.1784,-0.179,-0.1778,-0.1762,-0.1766,-0.1771,-0.1711,-0.1711,-0.1711,0,0,-0.1506,-0.1524,-0.1544,-0.1566,-0.1596,-0.1607,-0.1623,-0.1649,-0.1676,-0.1718,-0.1721,-0.1749,-0.1782,-0.1793,-0.1801,-0.1857,-0.1824,-0.1871,-0.1905,-0.1891,-0.1895,-0.1898,-0.1884,-0.1884,-0.1879,-0.1879,-0.1879,0,-0.152,-0.1543,-0.1556,-0.1584,-0.1607,-0.1626,-0.1658,-0.1685,-0.1724,-0.1742,-0.175,-0.1795,-0.1808,-0.1842,-0.1871,-0.1874,-0.1856,-0.1868,-0.1899,-0.1902,-0.1903,-0.1888,-0.1888,-0.1882,-0.1882,-0.1881,-0.1881,0,-0.1544,-0.1578,-0.1595,-0.1637,-0.1665,-0.1697,-0.173,-0.1767,-0.1797,-0.1814,-0.1861,-0.1873,-0.1895,-0.1915,-0.1912,-0.1941,-0.1923,-0.1907,-0.187,-0.1912,-0.1894,-0.1893,-0.1887,-0.1886,-0.1885,-0.1884,0,0,-0.1533,-0.16,-0.1609,-0.164,-0.1698,-0.1719,-0.1778,-0.1823,-0.1853,-0.1895,-0.1922,-0.197,-0.1966,-0.1974,-0.1976,-0.1975,-0.1986,-0.1954,-0.1951,-0.193,-0.1955,-0.1827,-0.1813,-0.1973,-0.1973,-0.1973,-0.1941,0,-0.1553,-0.1612,-0.1642,-0.1708,-0.174,-0.1782,-0.1829,-0.1874,-0.1909,-0.1941,-0.1957,-0.1986,-0.1992,-0.2003,-0.2006,-0.1985,-0.1984,-0.1996,-0.1925,-0.1923,-0.1796,-0.1808,-0.1973,-0.194,-0.194,-0.194,-0.194,0,-0.1559,-0.1603,-0.1667,-0.1739,-0.1757,-0.1802,-0.1868,-0.1912,-0.1957,-0.1981,-0.2007,-0.2012,-0.2032,-0.2021,-0.2008,-0.2014,-0.1993,-0.1973,-0.1971,-0.1822,-0.1791,-0.1888,-0.1937,-0.1937,-0.1937,-0.1938,-0.1938,0,-0.1527,-0.1614,-0.1667,-0.1696,-0.1781,-0.1821,-0.1866,-0.1925,-0.1948,-0.2001,-0.2009,-0.2034,-0.2035,-0.2019,-0.1998,-0.2003,-0.1958,-0.1956,-0.1822,-0.1813,-0.1911,-0.1908,-0.1936,-0.1936,-0.1937,-0.1937,-0.1937,0,-0.1515,-0.1562,-0.1662,-0.1691,-0.1746,-0.1814,-0.1861,-0.191,-0.1954,-0.1961,-0.2021,-0.2011,-0.2033,-0.2012,-0.1993,-0.1893,-0.1956,-0.1815,-0.1788,-0.1942,-0.1943,-0.1911,-0.1908,-0.1935,-0.1936,-0.1936,-0.1936,0,-0.1458,-0.1533,-0.1592,-0.1697,-0.173,-0.1765,-0.184,-0.1854,-0.1927,-0.1933,-0.1946,-0.1987,-0.1954,-0.1958,-0.1922,-0.1864,-0.1801,-0.1755,-0.1919,-0.1905,-0.1669,-0.1671,-0.159,-0.1585,-0.1581,-0.1577,-0.1574,0,-0.1429,-0.1457,-0.1571,-0.1599,-0.1649,-0.1712,-0.1734,-0.1821,-0.1828,-0.1895,-0.1871,-0.188,-0.1888,-0.1727,-0.1762,-0.1699,-0.1683,-0.1654,-0.1659,-0.1647,-0.1631,-0.1639,-0.1646,-0.1568,-0.1567,-0.1566,-0.1564,0,-0.1358,-0.1409,-0.1454,-0.1509,-0.1552,-0.1586,-0.1634,-0.1622,-0.1702,-0.1789,-0.1731,-0.1702,-0.1655,-0.162,-0.1581,-0.1546,-0.1673,-0.161,-0.1619,-0.1623,-0.162,-0.1609,-0.1621,-0.155,-0.1552,-0.1553,-0.1554,0,-0.1292,-0.1297,-0.1355,-0.1388,-0.144,-0.1434,-0.1479,-0.1474,-0.1491,-0.1575,-0.1551,-0.157,-0.1624,-0.1539,-0.1507,-0.1453,-0.1431,-0.1394,-0.1414,-0.1431,-0.1393,-0.1366,-0.1181,0,0,0,0,0,-0.1213,-0.12,-0.1223,-0.1247,-0.1293,-0.1318,-0.1391,-0.1437,-0.1521,-0.1429,-0.1484,-0.1435,-0.1375,-0.1395,-0.13,-0.1439,-0.1444,-0.1326,-0.1415,-0.1469,-0.1486,-0.1456,0,0,0,0,0,0,-0.1158,-0.1174,-0.1175,-0.1117,-0.1104,-0.1129,-0.1167,-0.1232,-0.1193,-0.129,-0.1255,-0.1341,-0.1296,-0.1385,-0.1263,-0.1269,-0.1295,-0.1354,-0.135,-0.1459,-0.1475,-0.1488,-0.1464,0,0,0,0,0]},{"header":{"parameterUnit":"m.s-1","parameterCategory":2,"la1":30.2991,"la2":30.254,"lo1":-89.0895,"lo2":-89.0444,"dy":0.0017,"dx":0.0017,"nx":28,"ny":28,"refTime":"2025-07-11T21:00:00:Z","depth":"4","parameterNumber":3,"parameterNumberName":"V-component_of_CURRENTS"},"data":[0,0,0,0,0,0,0,0,0,0,0,0,0,0,0,0,0,0,0,0,0,0,0,0,0,0,0,0,0,0,0,0,0,0,0,0,0,0,0,0,0,0,0,0,0,0,0,0,0,0,0,0,0,0,0,0,0,0,-0.0175,-0.0174,0,-0.0121,-0.0121,-0.012,-0.0085,-0.0085,-0.0085,-0.0085,-0.0035,-0.0034,-0.0033,0,0,0,0,0,0,0,0,0,0,0,0,0,-0.0215,-0.0214,-0.0175,-0.0174,-0.0173,-0.0121,-0.0121,-0.012,-0.0085,-0.0085,-0.0085,-0.0085,-0.0036,-0.0034,-0.0033,0,0,0,0,0,0,0,0,0,0,0,0,0,-0.0182,-0.0214,-0.0175,-0.015,-0.0147,-0.0122,-0.0121,-0.012,-0.0085,-0.0085,-0.0085,-0.0084,-0.0036,-0.0034,-0.0033,-0.0027,0,0,-0.0027,-0.0027,0,0,0,0,0,0,0,0,-0.0184,-0.0181,-0.0154,-0.0152,-0.0149,-0.011,-0.0117,-0.0089,-0.0085,-0.0108,-0.0085,-0.0084,-0.0061,-0.0057,-0.0047,-0.0025,-0.0023,-0.0027,-0.0026,-0.0025,-0.0025,0,0,0,0,0,0,0,-0.0187,-0.0183,-0.0153,-0.0154,-0.015,-0.0131,-0.0126,-0.0111,-0.0087,-0.0106,-0.0104,-0.0099,-0.0059,-0.0049,-0.0046,-0.0022,-0.0027,-0.0026,-0.0025,-0.0024,0.0038,0.0038,0,0,0,0,0,0,-0.0196,-0.0185,-0.0155,-0.0151,-0.0167,-0.0131,-0.0125,-0.0122,-0.0086,-0.0081,-0.0099,-0.0097,-0.0052,-0.0048,-0.0044,-0.001,-0.0025,-0.0024,-0.0023,0.0037,0.0038,0.0038,0,0,0,0,0,0,-0.0197,-0.0194,-0.0157,-0.0167,-0.0161,-0.0131,-0.0127,-0.0121,-0.0111,-0.0081,-0.0075,-0.0094,-0.0052,-0.0046,-0.0025,-0.0009,-0.0023,-0.0021,0.0036,0.0037,0.0038,0.0041,0,0,0,0,0,0,-0.0199,-0.0195,-0.0198,-0.0168,-0.0161,-0.0142,-0.0127,-0.0121,-0.0108,-0.0106,-0.0075,-0.007,-0.0051,-0.0028,-0.0023,-0.0007,-0.002,0.0036,0.0037,0.0038,0.004,0.0042,0.0043,0,0,0,0,0,-0.02,-0.0202,-0.0199,-0.0195,-0.0166,-0.0142,-0.0137,-0.0113,-0.0109,-0.0103,-0.008,-0.0071,-0.0017,-0.0026,-0.0021,-0.0004,0.0035,0.0036,0.0038,0.0039,0.0041,0.0043,0,0,0,0,0,0,-0.0219,-0.0197,-0.0194,-0.0189,-0.017,-0.0136,-0.0131,-0.0117,-0.0095,-0.0095,-0.0068,-0.0061,-0.0034,-0.0023,-0.0033,0.0018,0.0012,0.0014,0.0011,0.0013,0.0015,-0.0003,-0.0019,0,0,0,0,0,-0.0227,-0.0224,-0.0199,-0.0196,-0.0189,-0.0163,-0.0152,-0.0137,-0.0113,-0.0103,-0.0079,-0.0053,-0.0024,-0.001,0.0013,0.0035,0.0049,0.0051,0.0053,0.0054,0.0043,0.0085,0.0089,0.0043,0.0043,0.0043,0,0,-0.0233,-0.0222,-0.022,-0.0201,-0.0185,-0.0175,-0.0155,-0.0141,-0.0127,-0.0102,-0.0078,-0.0051,-0.0018,0.0014,0.0027,0.0025,0.0076,0.0056,0.0056,0.0045,0.0087,0.0091,0.0095,0.0044,0.0044,0.0043,0,0,-0.0241,-0.0236,-0.0235,-0.0224,-0.0205,-0.0186,-0.0185,-0.0154,-0.0135,-0.0111,-0.0083,-0.0047,-0.0013,0.0024,0.0045,0.0066,0.0081,0.0074,0.007,0.0111,0.0115,0.0119,0.0148,0.0155,0.0077,0.0077,0.0077,0,-0.0251,-0.0254,-0.0231,-0.0228,-0.0228,-0.0194,-0.0199,-0.0167,-0.0131,-0.0121,-0.0106,-0.0039,-0.0005,0.0041,0.0057,0.0071,0.0087,0.0061,0.0113,0.0117,0.0121,0.015,0.0157,0.0077,0.0077,0.0077,0.0077,0,-0.0255,-0.0265,-0.0264,-0.0254,-0.0245,-0.0245,-0.0208,-0.019,-0.0168,-0.0137,-0.0092,-0.0036,-0.0001,0.003,0.0052,0.0099,0.0099,0.0109,0.0106,0.0126,0.0155,0.0162,0.0078,0.0078,0.0077,0.0077,0,0,-0.0265,-0.027,-0.0273,-0.0296,-0.0269,-0.0271,-0.0241,-0.0216,-0.0212,-0.0148,-0.0131,-0.0048,-0.002,0.0005,0.0049,0.0098,0.0154,0.0111,0.0114,0.0136,0.0234,0.0215,0.022,0.017,0.0171,0.0172,0.0246,0,-0.0284,-0.0314,-0.0297,-0.0328,-0.0349,-0.0318,-0.0302,-0.0271,-0.0232,-0.02,-0.0116,-0.008,-0.0026,-0.001,0.0052,0.0124,0.0171,0.0132,0.0215,0.0217,0.0194,0.0228,0.0176,0.0251,0.0253,0.0254,0.0255,0,-0.0295,-0.0326,-0.0368,-0.0404,-0.0408,-0.0411,-0.0411,-0.0388,-0.0318,-0.0286,-0.022,-0.0157,-0.0064,-0.0028,0.0112,0.0082,0.0151,0.0213,0.0217,0.0198,0.021,0.0228,0.0268,0.0267,0.0266,0.0265,0.0264,0,-0.0345,-0.0376,-0.0427,-0.0437,-0.0455,-0.0469,-0.0469,-0.0422,-0.0413,-0.0339,-0.0321,-0.0206,-0.0145,-0.0038,0.0108,0.0104,0.0255,0.0265,0.0314,0.0313,0.0306,0.0301,0.0353,0.0352,0.0352,0.0352,0.0352,0,-0.0383,-0.0426,-0.0464,-0.0499,-0.0561,-0.054,-0.0576,-0.055,-0.0505,-0.0486,-0.0375,-0.0321,-0.0145,-0.0028,0.0089,0.0227,0.0243,0.0314,0.0334,0.0307,0.0301,0.0312,0.0306,0.0355,0.0354,0.0354,0.0353,0,-0.0429,-0.0449,-0.0523,-0.0572,-0.0591,-0.0637,-0.0659,-0.0672,-0.0618,-0.0586,-0.0562,-0.0401,-0.0238,-0.007,0.0121,0.0198,0.033,0.0371,0.0326,0.0341,0.0362,0.0356,0.0423,0.0423,0.0423,0.0423,0.0423,0,-0.0457,-0.0501,-0.0592,-0.0642,-0.0672,-0.0729,-0.0761,-0.0735,-0.0731,-0.0623,-0.0601,-0.0436,-0.0313,-0.0055,0.0116,0.0323,0.0351,0.0397,0.0386,0.0358,0.0371,0.0364,0.0358,0.0423,0.0423,0.0423,0.0423,0,-0.0521,-0.0553,-0.0616,-0.0721,-0.0783,-0.0843,-0.0874,-0.0879,-0.0817,-0.0773,-0.0618,-0.0455,-0.0269,-0.005,0.0111,0.0261,0.0355,0.0398,0.0398,0.0389,0.0359,0.037,0.0364,0.0423,0.0423,0.0423,0.0423,0,-0.0566,-0.0625,-0.0705,-0.079,-0.0871,-0.092,-0.0936,-0.0901,-0.0881,-0.0743,-0.0686,-0.0459,-0.0312,-0.0081,0.0072,0.0213,0.0243,0.0264,0.0272,0.0274,0.0209,0.0148,0.0165,0,0,0,0,0,-0.0608,-0.0674,-0.0764,-0.0859,-0.0933,-0.0969,-0.099,-0.0979,-0.0917,-0.0818,-0.0746,-0.0559,-0.0285,-0.015,-0.0012,0.0045,0.024,0.0205,0.026,0.0422,0.0423,0.037,0,0,0,0,0,0,-0.0639,-0.073,-0.0774,-0.0886,-0.0949,-0.1022,-0.1032,-0.099,-0.0918,-0.0824,-0.0668,-0.0558,-0.0287,-0.0362,-0.0016,0.003,0.0074,0.0347,0.0348,0.0422,0.0422,0.0423,0.0369,0,0,0,0,0]}]]